This demonstration page uses our WeatherBlox Daily Observations layout. Learn more.

Left ArrowRight Arrow

39.92423, -83.80882

Hourly Observations for June 23, 2021

Temp ( °F °C ) Dew Point ( °F °C ) Humidity (%) Winds ( mph kmh ) Pressure ( in mb ) Visibility ( mi km ) Precip ( " mm )
12:56 am 00:56 Clear 55 12.8 46 7.8 72 72 N N/A 30.10 1019 10 16 N/A
1:56 am 01:56 Clear 55 12.8 46 7.8 72 72 N N/A 30.11 1020 10 16 N/A
2:56 am 02:56 Clear 54 12.2 47 8.3 77 77 SSW 3 6 30.12 1020 10 16 N/A
3:56 am 03:56 Clear 55 12.8 46 7.8 72 72 S 5 7 30.11 1020 10 16 N/A
4:56 am 04:56 Clear 52 11.1 48 8.9 86 86 SSW 6 9 30.13 1020 10 16 N/A
5:56 am 05:56 Clear 51 10.6 47 8.3 86 86 N N/A 30.15 1021 10 16 N/A
6:56 am 06:56 Sunny 53 11.7 49 9.4 86 86 N N/A 30.16 1022 10 16 N/A
7:56 am 07:56 Sunny 59 15 49 9.4 69 69 SW 8 13 30.19 1022 10 16 N/A
8:56 am 08:56 Sunny 63 17.2 49 9.4 60 60 S 8 13 30.19 1022 10 16 N/A
9:56 am 09:56 Sunny 65 18.3 50 10 59 59 S 5 7 30.20 1023 10 16 N/A
10:56 am 10:56 Sunny 69 20.6 47 8.3 45 45 SSW 6 9 30.21 1023 10 16 N/A
11:56 am 11:56 Mostly Cloudy 73 22.8 47 8.3 40 40 S 8 13 30.21 1023 10 16 N/A
12:56 pm 12:56 Mostly Cloudy 73 22.8 49 9.4 43 43 SSW 8 13 30.21 1023 10 16 N/A
1:56 pm 13:56 Sunny 73 22.8 48 8.9 41 41 ESE 7 11 30.21 1023 10 16 N/A
2:56 pm 14:56 Sunny 74 23.3 49 9.4 41 41 S 6 9 30.19 1022 10 16 N/A
3:56 pm 15:56 Sunny 74 23.3 50 10 43 43 S 10 17 30.18 1022 10 16 N/A
4:56 pm 16:56 Cloudy 75 23.9 51 10.6 43 43 SSE 10 17 30.18 1022 10 16 N/A
5:56 pm 17:56 Mostly Cloudy 74 23.3 50 10 43 43 S 10 17 30.18 1022 10 16 N/A
6:56 pm 18:56 Sunny 73 22.8 52 11.1 48 48 S 8 13 30.18 1022 10 16 N/A
7:56 pm 19:56 Sunny 72 22.2 53 11.7 52 52 S 7 11 30.17 1022 10 16 N/A
8:56 pm 20:56 Partly Cloudy 69 20.6 54 12.2 59 59 SSE 6 9 30.16 1022 10 16 N/A
9:56 pm 21:56 Mostly Clear 67 19.4 54 12.2 63 63 SSE 6 9 30.17 1022 10 16 N/A
10:56 pm 22:56 Partly Cloudy 67 19.4 53 11.7 61 61 SSE 8 13 30.17 1022 10 16 N/A
11:56 pm 23:56 Mostly Clear 62 16.7 53 11.7 73 73 ESE 6 9 30.17 1022 10 16 N/A

Powered by AerisWeather